GW3733 Weather Reports


time (UTC)temp
F
wind
direction
speed
knots
gust
knots
rain 1hr
in
rain 24hr
in
rain mn
in
humidity
%
barometer
mb
20260906141135 71 5 0.0 0.0 0.00 0.00 0.00 89 1012.8
20260906140634 72 5 0.0 0.9 0.00 0.00 0.00 90 1012.9
20260906140129 69 6 0.0 0.0 0.00 0.00 0.00 90 1012.8
20260906135626 68 5 0.0 0.0 0.00 0.00 0.00 93 1012.8
20260906135122 68 6 0.0 0.0 0.00 0.00 0.00 95 1012.7
20260906134618 66 6 0.0 0.9 0.00 0.00 0.00 94 1012.8
20260906134113 65 5 0.0 0.0 0.00 0.00 0.00 99 1012.7
20260906133608 65 4 0.9 0.9 0.00 0.00 0.00 99 1012.8
20260906133103 65 4 0.0 0.0 0.00 0.00 0.00 99 1012.8
20260906132558 65 4 0.0 0.0 0.00 0.00 0.00 99 1012.7
20260906132054 65 4 0.0 0.0 0.00 0.00 0.00 99 1012.7
20260906131549 65 1 0.0 0.0 0.00 0.00 0.00 99 1012.7
20260906131044 64 1 0.0 0.0 0.00 0.00 0.00 99 1012.8
20260906130544 62 0 0.0 0.0 0.00 0.00 0.00 99 1012.8
20260906130039 62 0 0.0 0.0 0.00 0.00 0.00 99 1012.7
20260906125536 62 0 0.0 0.0 0.00 0.00 0.00 99 1012.7
20260906125031 62 0 0.0 0.0 0.00 0.00 0.00 99 1012.9
20260906124526 62 0 0.0 0.0 0.00 0.00 0.00 99 1012.6
20260906124021 62 0 0.0 0.0 0.00 0.00 0.00 99 1012.8
20260906123520 62 0 0.0 0.0 0.00 0.00 0.00 99 1012.7
20260906123015 62 0 0.0 0.0 0.00 0.00 0.00 99 1012.3
20260906122509 62 3 0.0 0.0 0.00 0.00 0.00 99 1012.6
20260906122006 62 4 0.0 0.0 0.00 0.00 0.00 99 1012.6
20260906121501 62 4 0.0 0.0 0.00 0.00 0.00 99 1012.2
20260906120958 62 3 0.0 0.0 0.00 0.00 0.00 99 1012.2
20260906120453 61 4 0.0 0.0 0.00 0.00 0.00 99 1011.9
20260906115949 62 4 0.0 0.0 0.00 0.00 0.00 99 1012.1
20260906115444 62 4 0.0 0.0 0.00 0.00 0.00 99 1011.9
20260906114944 61 4 0.0 0.0 0.00 0.00 0.00 99 1012.1
20260906114439 61 4 0.0 0.0 0.00 0.00 0.00 99 1011.8
20260906113935 61 4 0.0 0.0 0.00 0.00 0.00 99 1011.9
20260906113433 61 4 0.0 0.0 0.00 0.00 0.00 99 1011.9
20260906112929 61 4 0.0 0.0 0.00 0.00 0.00 99 1011.6
20260906112424 61 3 0.0 0.0 0.00 0.00 0.00 99 1011.5
20260906111920 61 3 0.0 0.0 0.00 0.00 0.00 99 1011.5
20260906111419 61 3 0.0 0.0 0.00 0.00 0.00 99 1011.4
20260906110914 61 3 0.0 0.0 0.00 0.00 0.00 99 1011.3
20260906110410 61 3 0.0 0.0 0.00 0.00 0.00 99 1011.4
20260906105909 61 3 0.0 0.0 0.00 0.00 0.00 99 1011.4
20260906105405 61 3 0.0 0.0 0.00 0.00 0.00 99 1011.4
20260906104901 61 3 0.0 0.0 0.00 0.00 0.00 99 1011.3
20260906104359 61 3 0.0 0.0 0.00 0.00 0.00 99 1011.2
20260906103858 61 3 0.0 0.0 0.00 0.00 0.00 99 1011.3
20260906103356 61 3 0.0 0.0 0.00 0.00 0.00 99 1011.3
20260906102852 62 3 0.0 0.0 0.00 0.00 0.00 99 1011.1
20260906102351 62 3 0.0 0.0 0.00 0.00 0.00 99 1011.0
20260906101846 62 3 0.0 0.0 0.00 0.00 0.00 99 1011.2
20260906101341 62 3 0.0 0.0 0.00 0.00 0.00 99 1010.9
20260906100837 62 3 0.0 0.0 0.00 0.00 0.00 99 1010.9
20260906100336 62 3 0.0 0.0 0.00 0.00 0.00 99 1010.8
20260906095831 62 3 0.0 0.0 0.00 0.00 0.00 99 1010.9
20260906095327 62 3 0.0 0.0 0.00 0.00 0.00 99 1010.8
20260906094826 62 3 0.0 0.0 0.00 0.00 0.00 99 1010.6
20260906094321 62 3 0.0 0.0 0.00 0.00 0.00 99 1010.9
20260906093817 63 3 0.0 0.0 0.00 0.00 0.00 99 1010.6
20260906093313 63 3 0.0 0.0 0.00 0.00 0.00 99 1011.0
20260906092807 62 3 0.0 0.0 0.00 0.00 0.00 99 1010.9
20260906092305 63 3 0.0 0.0 0.00 0.00 0.00 99 1010.5
20260906091757 63 3 0.0 0.0 0.00 0.00 0.00 99 1010.8
20260906091253 63 3 0.0 0.0 0.00 0.00 0.00 99 1010.6
20260906090750 63 3 0.0 0.0 0.00 0.00 0.00 99 1010.6
20260906090248 63 3 0.0 0.0 0.00 0.00 0.00 99 1010.4
20260906085748 64 3 0.0 0.0 0.00 0.00 0.00 99 1010.6
20260906085248 63 3 0.0 0.0 0.00 0.00 0.00 99 1010.5
20260906084742 64 3 0.0 0.0 0.00 0.00 0.00 99 1010.2
20260906084236 64 3 0.0 0.0 0.00 0.00 0.00 99 1010.2
20260906083732 64 3 0.0 0.0 0.00 0.00 0.00 99 1010.3
20260906083227 64 3 0.0 0.0 0.00 0.00 0.00 99 1010.4
20260906082722 64 3 0.0 0.0 0.00 0.00 0.00 99 1010.4
20260906082217 64 3 0.0 0.0 0.00 0.00 0.00 99 1010.4
20260906081713 64 3 0.0 0.0 0.00 0.00 0.00 99 1010.3
20260906081208 64 3 0.0 0.0 0.00 0.00 0.00 99 1010.4
20260906080704 64 3 0.0 0.0 0.00 0.00 0.00 99 1010.1
20260906080200 64 3 0.0 0.0 0.00 0.00 0.00 99 1009.9
20260906075659 64 3 0.0 0.0 0.00 0.00 0.00 99 1010.0
20260906075148 64 3 0.0 0.0 0.00 0.00 0.00 99 1010.1
20260906074643 64 3 0.0 0.0 0.00 0.00 0.00 99 1010.0
20260906074142 64 3 0.0 0.0 0.00 0.00 0.00 99 1010.1
20260906073637 64 3 0.0 0.0 0.00 0.00 0.00 99 1010.3
20260906073133 64 3 0.0 0.0 0.00 0.00 0.00 99 1010.3
20260906072628 65 3 0.0 0.0 0.00 0.00 0.00 99 1010.0
20260906072124 65 3 0.0 0.0 0.00 0.00 0.00 99 1009.9
20260906071615 65 3 0.0 0.0 0.00 0.00 0.00 99 1010.0
20260906071114 65 3 0.0 0.0 0.00 0.00 0.00 99 1010.0
20260906070611 65 3 0.0 0.0 0.00 0.00 0.00 99 1009.8
20260906070106 65 3 0.0 0.0 0.00 0.00 0.00 99 1010.0
20260906065606 65 3 0.0 0.0 0.00 0.00 0.00 99 1009.8
20260906065101 65 3 0.0 0.0 0.00 0.00 0.00 99 1010.0
20260906064557 65 3 0.0 0.0 0.00 0.00 0.00 99 1010.2
20260906064047 65 3 0.0 0.0 0.00 0.00 0.00 99 1009.9
20260906063542 65 3 0.0 0.0 0.00 0.00 0.00 99 1010.0
20260906063038 65 3 0.0 0.0 0.00 0.00 0.00 99 1010.0
20260906062533 65 3 0.0 0.0 0.00 0.00 0.00 99 1010.0
20260906062027 65 3 0.0 0.0 0.00 0.00 0.00 99 1010.2
20260906061524 65 3 0.0 0.0 0.00 0.00 0.00 99 1010.1
20260906061022 65 3 0.0 0.0 0.00 0.00 0.00 99 1010.1
20260906060520 65 3 0.0 0.0 0.00 0.00 0.00 99 1010.3
20260906060016 65 3 0.0 0.0 0.00 0.00 0.00 99 1010.1
20260906055511 65 3 0.0 0.0 0.00 0.00 0.00 99 1010.0
20260906055006 65 3 0.0 0.0 0.00 0.00 0.00 99 1009.9
20260906054501 65 3 0.0 0.0 0.00 0.00 0.00 99 1009.8
20260906053956 66 3 0.0 0.0 0.00 0.00 0.00 99 1009.9
20260906053452 66 3 0.0 0.0 0.00 0.00 0.00 99 1010.1
20260906052943 66 3 0.0 0.0 0.00 0.00 0.00 99 1010.1
20260906052438 66 3 0.0 0.0 0.00 0.00 0.00 99 1010.0
20260906051935 66 3 0.0 0.0 0.00 0.00 0.00 99 1010.0
20260906051430 66 3 0.0 0.0 0.00 0.00 0.00 99 1009.6
20260906050926 66 3 0.0 0.0 0.00 0.00 0.00 99 1010.0
20260906050425 66 3 0.0 0.0 0.00 0.00 0.00 99 1009.9
20260906045925 66 3 0.0 0.0 0.00 0.00 0.00 99 1009.9
20260906045423 67 3 0.0 0.0 0.00 0.00 0.00 99 1009.9
20260906044919 67 3 0.0 0.0 0.00 0.00 0.00 99 1009.9
20260906044414 67 3 0.0 0.0 0.00 0.00 0.00 99 1009.9
20260906043910 67 3 0.0 0.0 0.00 0.00 0.00 99 1010.3
20260906043406 67 3 0.0 0.0 0.00 0.00 0.00 99 1010.0
20260906042901 67 3 0.0 0.0 0.00 0.00 0.00 99 1010.1
20260906042400 67 3 0.0 0.0 0.00 0.00 0.00 99 1010.2
20260906041855 67 3 0.0 0.0 0.00 0.00 0.00 99 1010.2
20260906041351 67 3 0.0 0.0 0.00 0.00 0.00 99 1010.2
20260906040850 68 3 0.0 0.9 0.00 0.00 0.00 99 1010.2
20260906040346 68 2 0.0 0.0 0.00 0.00 0.00 99 1010.3
20260906035841 68 2 0.0 0.0 0.00 0.30 0.30 99 1010.3
20260906035336 68 2 0.0 0.0 0.00 0.30 0.30 99 1010.5
20260906034832 68 2 0.0 0.0 0.00 0.30 0.30 99 1010.2
20260906034327 68 2 0.0 0.0 0.00 0.30 0.30 99 1010.4
20260906033823 68 2 0.0 0.0 0.00 0.30 0.30 99 1010.5
20260906033322 68 2 0.0 0.0 0.00 0.30 0.30 99 1010.4
20260906032819 68 2 0.0 0.0 0.00 0.30 0.30 99 1010.8
20260906032314 68 2 0.0 0.0 0.00 0.30 0.30 99 1010.5
20260906031809 68 2 0.0 0.0 0.00 0.30 0.30 99 1010.4
20260906031305 68 2 0.0 0.0 0.00 0.30 0.30 99 1010.4
20260906030804 68 2 0.0 0.0 0.00 0.30 0.30 99 1010.3
20260906030300 68 2 0.0 0.0 0.00 0.30 0.30 99 1010.3
20260906025759 68 2 0.0 0.0 0.00 0.30 0.30 99 1010.3
20260906025254 68 2 0.0 0.0 0.00 0.30 0.30 99 1010.1
20260906024752 68 2 0.0 0.0 0.00 0.30 0.30 99 1010.3
20260906024251 68 2 0.0 0.0 0.00 0.30 0.30 99 1010.0
20260906023747 68 2 0.0 0.0 0.00 0.30 0.30 99 1010.1
20260906023242 68 2 0.0 0.0 0.00 0.30 0.30 99 1010.2
20260906022738 68 2 0.0 0.0 0.00 0.30 0.30 99 1010.1
20260906022232 68 2 0.0 0.0 0.00 0.30 0.30 99 1010.0
20260906021729 68 2 0.0 0.0 0.00 0.30 0.30 99 1009.7
20260906021227 68 2 0.0 0.0 0.00 0.30 0.30 99 1010.0
20260906020722 68 2 0.0 0.0 0.00 0.30 0.30 99 1009.7
20260906020218 68 2 0.0 0.0 0.00 0.30 0.30 99 1009.6
20260906015717 68 2 0.0 0.0 0.00 0.30 0.30 99 1009.9
20260906015210 68 3 0.0 0.0 0.00 0.30 0.30 99 1009.6
20260906014710 69 3 0.0 0.0 0.00 0.30 0.30 99 1009.7
20260906014206 69 3 0.0 0.0 0.00 0.30 0.30 99 1009.6
20260906013656 69 3 0.0 0.0 0.00 0.30 0.30 99 1009.6
20260906013152 69 3 0.0 0.0 0.00 0.30 0.30 99 1009.4
20260906012651 69 3 0.0 0.0 0.00 0.30 0.30 99 1009.6
20260906012146 69 3 0.0 0.0 0.00 0.30 0.30 99 1009.4
20260906011642 69 3 0.0 0.0 0.00 0.30 0.30 99 1009.4
20260906011142 69 4 0.0 0.0 0.00 0.30 0.30 99 1009.4
20260906010637 69 3 0.0 0.0 0.00 0.30 0.30 99 1009.2
20260906010133 69 4 0.0 0.0 0.00 0.30 0.30 99 1009.3
20260906005632 69 4 0.0 0.0 0.00 0.30 0.30 99 1009.1
20260906005127 69 4 0.0 0.0 0.00 0.30 0.30 99 1009.0
20260906004626 69 4 0.0 0.0 0.00 0.30 0.30 99 1009.1
20260906004121 69 4 0.0 0.0 0.00 0.30 0.30 99 1008.9
20260906003616 69 4 0.0 0.0 0.00 0.30 0.30 99 1008.9
20260906003112 69 4 0.0 0.0 0.00 0.30 0.30 99 1009.0
20260906002607 69 4 0.0 0.0 0.00 0.30 0.30 99 1008.9
20260906002101 69 4 0.0 0.0 0.00 0.30 0.30 99 1008.8
20260906001556 69 4 0.0 0.0 0.00 0.30 0.30 99 1008.6
20260906001051 69 4 0.0 0.0 0.00 0.30 0.30 99 1008.9
20260906000548 69 4 0.0 0.0 0.00 0.30 0.30 99 1008.9
20260906000042 69 4 0.0 0.0 0.00 0.30 0.30 99 1008.8
20260905235536 69 4 0.0 0.0 0.00 0.30 0.30 99 1008.6
20260905235031 69 4 0.0 0.0 0.00 0.30 0.30 99 1008.6
20260905234527 70 4 0.0 0.0 0.00 0.30 0.30 99 1008.6
20260905234027 70 4 0.0 0.0 0.00 0.30 0.30 99 1008.6
20260905233522 70 4 0.0 0.0 0.00 0.30 0.30 99 1008.9
20260905233021 70 4 0.0 0.0 0.00 0.30 0.30 99 1008.9
20260905232517 70 4 0.0 0.0 0.00 0.30 0.30 99 1008.8
20260905232013 71 4 0.0 0.0 0.00 0.30 0.30 99 1008.9
20260905231507 71 4 0.0 0.0 0.00 0.30 0.30 99 1008.7
20260905231004 71 4 0.0 0.0 0.00 0.30 0.30 99 1008.8
20260905230502 71 4 0.0 0.0 0.00 0.30 0.30 99 1008.6
20260905230001 71 4 0.0 0.0 0.00 0.30 0.30 99 1008.6
20260905225455 71 4 0.0 0.0 0.00 0.30 0.30 99 1008.5
20260905224950 71 4 0.0 0.0 0.00 0.30 0.30 99 1008.5
20260905224446 72 4 0.0 0.0 0.00 0.30 0.30 99 1008.7
20260905223945 72 4 0.0 0.0 0.00 0.30 0.30 99 1008.6
20260905223443 72 4 0.0 0.0 0.00 0.30 0.30 99 1008.7
20260905222943 71 4 0.0 0.0 0.00 0.30 0.30 99 1008.6
20260905222438 72 4 0.0 0.0 0.00 0.30 0.30 99 1008.6
20260905221934 72 4 0.0 0.0 0.00 0.30 0.30 99 1008.6
20260905221430 72 4 0.0 0.0 0.00 0.30 0.30 99 1008.4
20260905220926 72 4 0.0 0.0 0.00 0.30 0.30 99 1008.5
20260905220422 72 4 0.0 0.0 0.00 0.30 0.30 99 1008.5
20260905215921 72 4 0.0 0.0 0.00 0.30 0.30 99 1008.2
20260905215416 71 4 0.0 0.0 0.00 0.30 0.30 97 1008.6
20260905214913 72 4 0.0 0.0 0.00 0.30 0.30 99 1008.3
20260905214408 71 4 0.0 0.0 0.00 0.30 0.30 99 1008.2
20260905213902 72 5 0.0 0.9 0.00 0.30 0.30 99 1008.3
20260905213359 71 0 0.0 0.0 0.00 0.30 0.30 99 1008.4
20260905212854 71 0 0.0 0.0 0.00 0.30 0.30 99 1008.1
20260905212354 71 359 0.0 0.0 0.00 0.30 0.30 99 1008.1
20260905211848 71 0 0.0 0.0 0.00 0.30 0.30 99 1008.0
20260905211343 71 342 0.9 0.9 0.00 0.30 0.30 99 1008.1
20260905210839 71 342 0.0 0.0 0.00 0.30 0.30 99 1008.1
20260905210334 71 342 0.0 0.0 0.00 0.30 0.30 99 1007.6
20260905205832 72 355 0.0 0.0 0.00 0.30 0.30 98 1007.6
20260905205327 72 352 0.0 0.0 0.19 0.30 0.30 97 1007.6
20260905204826 72 352 0.0 0.0 0.24 0.30 0.30 97 1007.8
20260905204322 73 354 0.9 0.9 0.12 0.28 0.28 96 1007.9
20260905203821 73 6 0.0 0.0 0.00 0.26 0.26 96 1007.9
20260905203317 74 355 0.0 0.0 0.00 0.26 0.26 94 1008.1
20260905202812 74 359 0.0 0.0 0.00 0.26 0.26 92 1008.0
20260905202307 76 316 1.7 1.7 0.00 0.26 0.26 88 1007.9
20260905201757 78 12 0.9 1.7 0.00 0.26 0.26 84 1007.8
20260905201252 79 356 0.0 0.0 0.00 0.26 0.26 84 1008.0
20260905200747 78 347 0.0 0.0 0.00 0.26 0.26 88 1008.1
20260905200243 79 309 1.7 1.7 0.00 0.26 0.26 86 1007.9
20260905195741 80 321 1.7 1.7 0.00 0.26 0.26 81 1007.8
20260905195236 79 334 0.0 0.0 0.00 0.26 0.26 86 1008.0
20260905194732 80 334 0.9 0.9 0.00 0.26 0.26 80 1008.0
20260905194231 81 17 0.0 0.9 0.00 0.26 0.26 81 1007.8
20260905193725 81 355 0.0 0.0 0.00 0.26 0.26 82 1007.8
20260905193220 81 340 0.9 0.9 0.00 0.26 0.26 80 1007.6
20260905192716 80 325 0.9 0.9 0.00 0.26 0.26 87 1007.6
20260905192213 78 1 0.0 0.0 0.00 0.26 0.26 88 1008.1
20260905191712 78 343 0.0 0.0 0.00 0.26 0.26 84 1008.1
20260905191210 81 14 0.0 0.9 0.00 0.26 0.26 78 1008.2
20260905190709 79 6 0.0 0.0 0.00 0.26 0.26 85 1008.0
20260905190208 78 330 0.0 0.9 0.00 0.26 0.26 90 1008.1
20260905185706 78 329 0.9 0.9 0.00 0.26 0.26 87 1008.4
20260905185201 79 342 0.0 0.9 0.00 0.26 0.26 84 1008.5
20260905184700 80 359 0.0 0.0 0.00 0.26 0.26 82 1008.4
20260905184159 80 353 0.0 0.9 0.00 0.26 0.26 84 1008.5
20260905183654 78 344 0.0 0.0 0.00 0.26 0.26 86 1008.6
20260905183149 78 25 0.0 0.9 0.00 0.26 0.26 85 1008.6
20260905182648 77 18 0.0 0.0 0.00 0.26 0.26 92 1008.6
20260905182143 78 12 0.0 0.0 0.00 0.26 0.26 89 1008.7
20260905181638 78 25 0.9 0.9 0.00 0.26 0.26 86 1008.9
20260905181137 76 344 0.0 0.0 0.00 0.26 0.26 93 1008.9
20260905180632 78 345 0.9 0.9 0.00 0.26 0.26 92 1009.1
20260905180127 78 15 0.0 0.0 0.00 0.26 0.26 94 1009.0
20260905175626 76 5 0.0 0.0 0.00 0.26 0.26 93 1008.9
20260905175122 76 309 0.9 0.9 0.00 0.26 0.26 96 1009.1
20260905174617 76 351 0.0 0.0 0.00 0.26 0.26 94 1009.2
20260905174112 75 331 0.0 0.0 0.00 0.26 0.26 96 1008.9
20260905173608 75 313 0.9 0.9 0.00 0.26 0.26 97 1009.1
20260905173104 74 341 0.0 0.9 0.00 0.26 0.26 98 1009.0
20260905172603 73 339 0.0 0.9 0.00 0.26 0.26 98 1009.2
20260905172057 72 192 1.7 1.7 0.00 0.26 0.26 99 1009.2
20260905171554 72 334 0.0 0.0 0.07 0.26 0.26 99 1009.0
20260905171050 71 12 0.0 0.0 0.19 0.26 0.26 99 1009.4
20260905170546 71 8 0.0 0.9 0.12 0.25 0.25 99 1009.3
20260905170041 71 11 0.0 0.0 0.00 0.23 0.23 99 1009.6
20260905165536 71 11 0.0 0.0 0.00 0.23 0.23 99 1009.6
20260905165032 70 10 0.0 0.0 1.09 0.23 0.23 99 1009.6
20260905164526 70 337 0.0 0.9 1.25 0.23 0.23 99 1009.8
20260905164020 71 354 0.0 0.0 0.31 0.07 0.07 99 1009.8
20260905163511 71 330 1.7 2.6 0.00 0.02 0.02 99 1009.7
20260905163007 72 351 0.0 0.9 0.00 0.02 0.02 99 1010.1
20260905162502 72 355 0.0 0.9 0.00 0.02 0.02 99 1010.0
20260905161956 73 355 0.0 0.0 0.00 0.02 0.02 99 1009.7
20260905161455 73 349 0.0 0.0 0.07 0.02 0.02 99 1009.9
20260905160954 73 351 0.0 0.0 0.12 0.02 0.02 99 1009.8
20260905160448 74 351 0.0 0.0 0.05 0.01 0.01 98 1009.8
20260905155947 74 349 0.0 0.0 0.00 0.00 0.00 97 1009.7
20260905155442 74 347 0.0 0.0 0.00 0.00 0.00 94 1009.6
20260905154941 74 13 0.0 0.0 0.00 0.00 0.00 93 1009.7
20260905154436 74 13 0.0 0.0 0.00 0.00 0.00 93 1009.8
20260905153932 75 13 0.0 0.0 0.00 0.00 0.00 93 1009.9
20260905153428 74 13 0.0 0.0 0.00 0.00 0.00 95 1009.7
20260905152927 73 13 0.0 0.0 0.00 0.00 0.00 96 1010.0
20260905152427 73 13 0.0 0.0 0.00 0.00 0.00 99 1009.9
20260905151922 73 13 0.0 0.0 0.00 0.00 0.00 99 1010.0
20260905151418 72 12 0.0 0.0 0.00 0.00 0.00 99 1010.3
20260905150919 72 13 0.0 0.9 0.00 0.00 0.00 99 1010.0
20260905150419 72 13 0.0 0.0 0.00 0.00 0.00 99 1010.0
20260905145915 72 13 0.0 0.0 0.00 0.00 0.00 99 1010.2
20260905145410 72 12 0.0 0.0 0.00 0.00 0.00 99 1010.3
20260905144909 71 12 0.0 0.0 0.00 0.00 0.00 99 1010.3
20260905144405 71 13 0.0 0.0 0.00 0.00 0.00 99 1010.4
20260905143903 71 13 0.0 0.0 0.00 0.00 0.00 99 1010.3
20260905143358 71 13 0.0 0.0 0.00 0.00 0.00 99 1010.4
20260905142857 71 13 0.0 0.0 0.00 0.00 0.00 99 1010.0
20260905142355 71 13 0.0 0.0 0.00 0.00 0.00 99 1010.0
20260905141852 71 13 0.0 0.0 0.00 0.00 0.00 99 1010.0